Date String (YYYY-MM-DD hh:mm:ss) UTC,Instrument flags,Ambient pressure (hPa),Sample flow (lpm),Bypass flow (lpm),Sample temperature (°C),Ambient temperature (°C),ASC tube jacket temperature (°C),LED temperature (°C),Box temperature (°C),Sample RH (%),Span deviation,Mass concentration (μg/m³),Mass concentration (μg/m³),Mass concentration (μg/m³)
DateTimeUTC,F1_M11,P_M11,Q1_M11,Q2_M11,T1_M11,T2_M11,T3_M11,T4_M11,T5_M11,U1_M11,ZSPAN_M11,X0_M11,X2_M11,X1_M11
2022-05-14 04:00:00,,0825.6,5.00,0.00,29.4,28.6,00.0,38.4,31.2,04.2,0000.0,0010.65,0004.30,0003.10
2022-05-14 04:01:00,,0825.6,5.00,0.00,29.4,28.6,00.0,38.4,31.2,04.3,0000.0,0011.06,0004.26,0003.12
2022-05-14 04:02:00,,0825.6,4.99,0.00,29.4,28.7,00.0,38.4,31.2,04.3,0000.0,0010.61,0004.29,0003.12
2022-05-14 04:03:00,,0825.7,5.01,0.00,29.4,28.7,00.0,38.4,31.2,04.2,0000.0,0010.14,0004.20,0003.11
2022-05-14 04:04:00,,0825.7,4.99,0.00,29.5,28.7,00.0,38.4,31.3,04.2,0000.0,0010.18,0004.22,0003.12
2022-05-14 04:05:00,,0825.7,5.01,0.00,29.5,28.7,00.0,38.4,31.3,04.3,0000.0,0010.10,0004.21,0003.12
2022-05-14 04:06:00,,0825.8,4.99,0.00,29.5,28.8,00.0,38.4,31.3,04.3,0000.0,0010.01,0004.19,0003.12
2022-05-14 04:07:00,,0825.9,5.01,0.00,29.5,28.8,00.0,38.5,31.3,04.3,0000.0,0010.63,0004.16,0003.10
2022-05-14 04:08:00,,0825.9,4.99,0.00,29.6,28.9,00.0,38.5,31.4,04.6,0000.0,0010.79,0004.17,0003.08
2022-05-14 04:09:00,,0825.9,4.99,0.00,29.6,28.9,00.0,38.5,31.4,04.9,0000.0,0010.87,0004.18,0003.07
2022-05-14 04:10:00,,0825.9,5.01,0.00,29.6,28.9,00.0,38.5,31.4,04.9,0000.0,0011.33,0004.21,0003.08
2022-05-14 04:11:00,,0825.9,5.00,0.00,29.7,28.9,00.0,38.5,31.4,04.7,0000.0,0011.96,0004.26,0003.10
2022-05-14 04:12:00,,0826.0,5.00,0.00,29.7,29.0,00.0,38.5,31.5,04.6,0000.0,0011.79,0004.26,0003.07
2022-05-14 04:13:00,,0825.9,5.01,0.00,29.7,29.0,00.0,38.5,31.5,04.6,0000.0,0011.39,0004.19,0003.02
2022-05-14 04:14:00,,0826.0,5.00,0.00,29.7,29.0,00.0,38.6,31.5,04.5,0000.0,0011.49,0004.23,0003.01
2022-05-14 04:15:00,,0826.0,5.00,0.00,29.8,29.0,00.0,38.6,31.6,04.5,0000.0,0011.46,0004.22,0002.99
2022-05-14 04:16:00,,0826.0,5.01,0.00,29.8,29.0,00.0,38.6,31.6,04.6,0000.0,0011.53,0004.23,0002.98
2022-05-14 04:17:00,,0826.0,4.99,0.00,29.8,29.0,00.0,38.6,31.6,04.7,0000.0,0011.57,0004.24,0002.97
2022-05-14 04:18:00,,0826.0,5.01,0.00,29.8,29.0,00.0,38.6,31.6,04.8,0000.0,0011.08,0004.24,0002.96
2022-05-14 04:19:00,,0826.1,5.01,0.00,29.8,27.5,00.0,38.6,31.3,04.6,0000.0,0010.77,0004.22,0002.97
2022-05-14 04:20:00,,0826.0,5.00,0.00,29.6,25.6,00.0,38.6,31.0,04.5,0000.0,0010.56,0004.16,0002.97
2022-05-14 04:21:00,,0826.0,4.98,0.00,29.5,25.6,00.0,38.5,30.9,04.6,0000.0,0010.11,0004.10,0002.94
2022-05-14 04:22:00,,0826.0,5.01,0.00,29.4,26.0,00.0,38.5,30.9,04.4,0000.0,0009.16,0004.03,0002.93
2022-05-14 04:23:00,,0826.1,4.99,0.00,29.4,26.5,00.0,38.4,31.0,04.1,0000.0,0008.75,0004.00,0002.91
2022-05-14 04:24:00,,0826.1,5.00,0.00,29.4,26.9,00.0,38.4,31.0,04.0,0000.0,0008.51,0004.03,0002.93
2022-05-14 04:25:00,,0826.0,5.00,0.00,29.4,27.3,00.0,38.4,31.1,04.0,0000.0,0008.53,0004.00,0002.93
2022-05-14 04:26:00,,0826.0,5.00,0.00,29.4,27.6,00.0,38.4,31.1,03.9,0000.0,0009.17,0004.01,0002.93
2022-05-14 04:27:00,,0826.1,5.00,0.00,29.5,27.8,00.0,38.4,31.1,04.0,0000.0,0009.08,0004.00,0002.93
2022-05-14 04:28:00,,0826.0,4.98,0.00,29.5,28.0,00.0,38.4,31.2,04.1,0000.0,0008.95,0003.97,0002.95
2022-05-14 04:29:00,,0826.0,5.01,0.00,29.5,28.2,00.0,38.4,31.3,04.1,0000.0,0009.03,0003.99,0002.98
2022-05-14 04:30:00,,0826.0,4.99,0.00,29.5,28.3,00.0,38.4,31.3,04.0,0000.0,0009.71,0004.02,0003.00
2022-05-14 04:31:00,,0826.0,5.01,0.00,29.5,28.3,00.0,38.4,31.3,04.0,0000.0,0009.70,0004.03,0003.00
2022-05-14 04:32:00,,0826.0,4.98,0.00,29.6,28.4,00.0,38.4,31.4,03.9,0000.0,0010.07,0004.06,0003.04
2022-05-14 04:33:00,,0826.0,5.00,0.00,29.6,28.5,00.0,38.4,31.4,03.9,0000.0,0010.30,0004.10,0003.07
2022-05-14 04:34:00,,0825.9,5.00,0.00,29.6,28.6,00.0,38.5,31.4,03.9,0000.0,0010.40,0004.14,0003.09
2022-05-14 04:35:00,,0825.9,5.00,0.00,29.6,28.6,00.0,38.5,31.4,03.9,0000.0,0010.48,0004.13,0003.11
2022-05-14 04:36:00,,0825.8,4.99,0.00,29.6,28.7,00.0,38.5,31.4,03.8,0000.0,0010.47,0004.15,0003.13
2022-05-14 04:37:00,,0825.9,5.01,0.00,29.7,28.8,00.0,38.5,31.4,03.8,0000.0,0009.84,0004.13,0003.13
2022-05-14 04:38:00,,0825.9,5.00,0.00,29.7,28.8,00.0,38.5,31.5,03.8,0000.0,0010.45,0004.15,0003.15
2022-05-14 04:39:00,,0825.8,5.00,0.00,29.7,28.8,00.0,38.5,31.5,03.8,0000.0,0010.90,0004.17,0003.16
2022-05-14 04:40:00,,0825.9,5.00,0.00,29.7,28.8,00.0,38.6,31.6,03.8,0000.0,0011.41,0004.14,0003.17
2022-05-14 04:41:00,,0825.9,5.01,0.00,29.7,28.8,00.0,38.6,31.6,03.8,0000.0,0010.90,0004.12,0003.16
2022-05-14 04:42:00,,0825.9,5.00,0.00,29.8,28.8,00.0,38.6,31.6,03.8,0000.0,0010.89,0004.11,0003.15
2022-05-14 04:43:00,,0825.9,5.00,0.00,29.8,28.8,00.0,38.6,31.6,03.8,0000.0,0010.64,0004.12,0003.15
2022-05-14 04:44:00,,0825.9,5.00,0.00,29.7,28.8,00.0,38.6,31.6,03.8,0000.0,0010.38,0004.09,0003.14
2022-05-14 04:45:00,,0825.9,5.00,0.00,29.7,28.8,00.0,38.6,31.5,03.8,0000.0,0010.34,0004.09,0003.14
2022-05-14 04:46:00,,0825.9,4.99,0.00,29.7,28.8,00.0,38.6,31.5,03.8,0000.0,0010.35,0004.05,0003.13
2022-05-14 04:47:00,,0825.9,5.00,0.00,29.7,28.8,00.0,38.6,31.5,03.8,0000.0,0010.34,0004.01,0003.13
2022-05-14 04:48:00,,0825.9,5.01,0.00,29.7,28.8,00.0,38.6,31.5,03.9,0000.0,0010.23,0004.02,0003.13
2022-05-14 04:49:00,,0825.9,5.01,0.00,29.7,28.8,00.0,38.6,31.5,03.9,0000.0,0009.89,0004.02,0003.12
2022-05-14 04:50:00,,0825.8,5.00,0.00,29.7,28.8,00.0,38.6,31.5,04.5,0000.0,0009.84,0004.03,0003.10
2022-05-14 04:51:00,,0825.9,4.99,0.00,29.7,28.9,00.0,38.6,31.5,05.3,0000.0,0009.28,0004.05,0003.07
2022-05-14 04:52:00,,0825.9,5.00,0.00,29.7,28.9,00.0,38.6,31.5,04.7,0000.0,0009.53,0004.04,0003.06
2022-05-14 04:53:00,,0825.9,5.01,0.00,29.8,28.9,00.0,38.7,31.5,04.4,0000.0,0009.61,0004.05,0003.06
2022-05-14 04:54:00,,0825.9,5.00,0.00,29.8,28.9,00.0,38.7,31.5,04.7,0000.0,0009.64,0004.07,0003.05
2022-05-14 04:55:00,,0826.0,4.99,0.00,29.8,28.9,00.0,38.7,31.5,04.7,0000.0,0009.72,0004.08,0003.06
2022-05-14 04:56:00,,0826.0,5.01,0.00,29.8,29.0,00.0,38.7,31.6,04.5,0000.0,0009.77,0004.08,0003.06
2022-05-14 04:57:00,,0826.0,5.01,0.00,29.8,29.0,00.0,38.7,31.6,04.8,0000.0,0009.58,0004.08,0003.06
2022-05-14 04:58:00,,0826.0,4.99,0.00,29.8,29.0,00.0,38.7,31.6,04.9,0000.0,0009.40,0004.07,0003.06
2022-05-14 04:59:00,,0826.1,5.00,0.00,29.9,29.0,00.0,38.7,31.6,04.4,0000.0,0009.43,0004.07,0003.04
